Bookmark and Share
Track history (hours):
 

Chemical Pioneer

More information available from US FCC via Universal Licensing System and Coast Guard Vessel Documentation Center.

Last reported at 2014-Apr-14 09:33 UTC. Time now 2014-Apr-16 19:27 UTC.
Position N 38°48' W 074°57'.

Type: Tanker. MMSI: 366032000.

NotesDate/timePositionNaut miles runAvg speedWind from/ knotsBaromVisibWave heightAir tempDewpointWater temp
2014-Apr-14 09:33N 38°48' W 074°57'8 8.5
2014-Apr-14 08:33N 38°48' W 074°46'88 8.8
2014-Apr-13 22:30N 39°05' W 072°55'11 8.4
2014-Apr-13 21:15N 39°12' W 072°44'6 8.4
2014-Apr-13 20:33N 39°14' W 072°37'9 8.6
2014-Apr-13 19:31N 39°19' W 072°27'7 7.7
2014-Apr-13 18:33N 39°23' W 072°19'8 7.8
2014-Apr-13 17:33N 39°29' W 072°13'6 5.6
2014-Apr-13 16:33N 39°32' W 072°19'6 5.6
2014-Apr-13 15:33N 39°37' W 072°22'6 6.4
2014-Apr-13 14:33N 39°41' W 072°28'6 5.7
2014-Apr-13 13:33N 39°36' W 072°30'8 8.4
2014-Apr-13 12:33N 39°29' W 072°22'8 8.0
2014-Apr-13 11:34N 39°27' W 072°12'1 1.0
2014-Apr-13 10:33N 39°27' W 072°14'3 3.1
2014-Apr-13 09:33N 39°29' W 072°17'3 2.9
2014-Apr-13 08:33N 39°31' W 072°20'3 3.0
2014-Apr-13 07:31N 39°33' W 072°23'3 2.8
2014-Apr-13 06:31N 39°35' W 072°26'3 3.0
2014-Apr-13 05:33N 39°36' W 072°29'3 3.3
2014-Apr-13 04:33N 39°39' W 072°32'3 3.3
2014-Apr-13 03:33N 39°41' W 072°35'3 3.3
2014-Apr-13 02:33N 39°43' W 072°39'4 3.4
2014-Apr-13 01:29N 39°45' W 072°42'11 5.2
2014-Apr-12 23:18N 39°52' W 072°54'15 6.8
2014-Apr-12 21:06N 40°01' W 073°10'4 7.3
2014-Apr-12 20:33N 40°01' W 073°15'7 6.8
2014-Apr-12 19:33N 40°04' W 073°23'7 6.8
2014-Apr-12 18:33N 40°09' W 073°29'7 6.9
2014-Apr-12 17:33N 40°14' W 073°35'7 7.1
2014-Apr-12 16:33N 40°19' W 073°41'7 6.8
2014-Apr-12 15:33N 40°23' W 073°48'8 7.6
2014-Apr-12 14:33N 40°27' W 073°57'1212.1
2014-Apr-12 13:32N 40°30' W 074°12'4 3.8
2014-Apr-12 12:29N 40°34' W 074°13'1 0.0
2014-Apr-11 13:16N 40°35' W 074°12'1 2.0
2014-Apr-11 12:32N 40°37' W 074°12'5 5.3
2014-Apr-11 11:33N 40°39' W 074°06'0 0.0
2014-Apr-11 10:33N 40°39' W 074°06'0 0.0
2014-Apr-11 09:33N 40°39' W 074°06'0 0.0
2014-Apr-11 08:33N 40°39' W 074°06'0 0.0
2014-Apr-11 07:27N 40°39' W 074°06'0 0.0
2014-Apr-11 06:33N 40°39' W 074°06'0 0.0
2014-Apr-11 05:33N 40°39' W 074°06'0 0.0
2014-Apr-11 04:33N 40°39' W 074°06'0 0.0
2014-Apr-11 03:30N 40°39' W 074°06'0 0.0
2014-Apr-11 02:33N 40°39' W 074°06'0 0.0
2014-Apr-11 01:33N 40°39' W 074°06'0 0.0
2014-Apr-11 00:33N 40°39' W 074°06'0 0.0
2014-Apr-10 23:33N 40°39' W 074°06'0 0.0
2014-Apr-10 22:33N 40°39' W 074°06'0 0.0
2014-Apr-10 21:33N 40°39' W 074°06'0 0.0
2014-Apr-10 20:30N 40°39' W 074°06'0 0.0
2014-Apr-10 19:33N 40°39' W 074°06'0 0.0
2014-Apr-10 18:30N 40°39' W 074°06'0 0.0
2014-Apr-10 17:27N 40°39' W 074°06'0 0.0
2014-Apr-10 16:33N 40°39' W 074°06'0 0.0
2014-Apr-10 15:33N 40°39' W 074°06'0 0.0
2014-Apr-10 14:33N 40°39' W 074°06'0 0.0
2014-Apr-10 13:33N 40°39' W 074°06'0 0.0
2014-Apr-10 12:34N 40°39' W 074°06'0 0.0
2014-Apr-10 11:33N 40°39' W 074°06'3 3.3
2014-Apr-10 10:34N 40°37' W 074°03'1111.3
2014-Apr-10 09:33N 40°28' W 073°52'26 8.2
2014-Apr-10 06:22N 40°03' W 073°45'9 9.3
2014-Apr-10 05:22N 39°53' W 073°44'910.7
2014-Apr-10 04:33N 39°45' W 073°43'1815.4
2014-Apr-10 03:24N 39°28' W 073°49'  

Dump ship's entire track history

sailing weather and tide predictions

Chemical Pioneer — KAFO — position and weather